• In Hungary
  • List of Countries
  • For 7 days
  • Water Temperature
  • Satellite Maps
  • Weather Map
  • News
  • Weather Widgets
  • user-avatar
    Login

    Hourly Weather Babenki

    Today, 15 August, Wednesday

    Time Temperature Precipitation Wind Pressure Humidity
    00:00 +15°C° 0 mm 2 mps 739 mmHg 88%
    01:00 +14°C° 0 mm 2 mps 739 mmHg 90%
    02:00 +14°C° 0 mm 2 mps 738 mmHg 94%
    03:00 +15°C° 0.1 mm 2 mps 738 mmHg 94%
    04:00 +15°C° 0.1 mm 2 mps 738 mmHg 95%
    05:00 +15°C° 0.1 mm 2 mps 737 mmHg 95%
    06:00 +16°C° 0.6 mm 2 mps 737 mmHg 94%
    07:00 +18°C° 0.6 mm 3 mps 736 mmHg 92%
    08:00 +19°C° 0.6 mm 3 mps 736 mmHg 91%
    09:00 +20°C° 0.9 mm 3 mps 736 mmHg 89%
    10:00 +21°C° 0.9 mm 3 mps 736 mmHg 88%
    11:00 +22°C° 0.9 mm 3 mps 735 mmHg 87%
    12:00 +22°C° 1.1 mm 4 mps 735 mmHg 88%
    13:00 +22°C° 1.1 mm 4 mps 735 mmHg 89%
    14:00 +21°C° 1.1 mm 4 mps 735 mmHg 90%
    15:00 +21°C° 0.7 mm 4 mps 736 mmHg 90%
    16:00 +21°C° 0.7 mm 4 mps 736 mmHg 90%
    17:00 +21°C° 0.7 mm 3 mps 736 mmHg 91%
    18:00 +20°C° 0.1 mm 3 mps 736 mmHg 93%
    19:00 +19°C° 0.1 mm 3 mps 736 mmHg 95%
    20:00 +17°C° 0.1 mm 2 mps 736 mmHg 97%
    21:00 +17°C° 0 mm 2 mps 737 mmHg 97%
    22:00 +16°C° 0 mm 2 mps 737 mmHg 97%
    23:00 +16°C° 0 mm 2 mps 737 mmHg 98%

    Tomorrow, 16 August, Thursday

    Time Temperature Precipitation Wind Pressure Humidity
    00:00 +15°C° 0 mm 2 mps 737 mmHg 98%
    01:00 +15°C° 0 mm 2 mps 738 mmHg 98%
    02:00 +14°C° 0 mm 2 mps 738 mmHg 98%
    03:00 +14°C° 0 mm 1 mps 738 mmHg 98%
    04:00 +14°C° 0 mm 1 mps 739 mmHg 98%
    05:00 +14°C° 0 mm 1 mps 739 mmHg 98%
    06:00 +15°C° 0 mm 1 mps 739 mmHg 96%
    07:00 +18°C° 0 mm 1 mps 740 mmHg 93%
    08:00 +19°C° 0 mm 1 mps 740 mmHg 91%
    09:00 +19°C° 0.1 mm 1 mps 740 mmHg 88%
    10:00 +20°C° 0.1 mm 1 mps 741 mmHg 84%
    11:00 +21°C° 0.1 mm 1 mps 741 mmHg 81%
    12:00 +20°C° 0.2 mm 2 mps 741 mmHg 78%
    13:00 +21°C° 0.2 mm 2 mps 741 mmHg 75%
    14:00 +21°C° 0.2 mm 2 mps 741 mmHg 71%
    15:00 +21°C° 0.1 mm 2 mps 742 mmHg 72%
    16:00 +21°C° 0.1 mm 2 mps 742 mmHg 72%
    17:00 +21°C° 0.1 mm 2 mps 742 mmHg 72%
    18:00 +19°C° 0 mm 2 mps 742 mmHg 78%
    19:00 +17°C° 0 mm 2 mps 743 mmHg 83%
    20:00 +16°C° 0 mm 1 mps 743 mmHg 89%
    21:00 +15°C° 0 mm 1 mps 743 mmHg 90%
    22:00 +14°C° 0 mm 1 mps 743 mmHg 91%
    23:00 +14°C° 0 mm 1 mps 744 mmHg 92%

    Day after tomorrow, 17 August, Friday

    Time Temperature Precipitation Wind Pressure Humidity
    00:00 +13°C° 0 mm 1 mps 744 mmHg 93%
    01:00 +13°C° 0 mm 1 mps 744 mmHg 93%
    02:00 +12°C° 0 mm 1 mps 744 mmHg 94%
    03:00 +12°C° 0 mm 1 mps 745 mmHg 94%
    04:00 +12°C° 0 mm 1 mps 745 mmHg 94%
    05:00 +12°C° 0 mm 1 mps 745 mmHg 94%
    06:00 +14°C° 0 mm 1 mps 746 mmHg 87%
    07:00 +16°C° 0 mm 1 mps 746 mmHg 80%
    08:00 +18°C° 0 mm 2 mps 746 mmHg 73%
    09:00 +19°C° 0 mm 2 mps 746 mmHg 67%
    10:00 +21°C° 0 mm 2 mps 746 mmHg 60%
    11:00 +23°C° 0 mm 2 mps 746 mmHg 54%
    12:00 +24°C° 0 mm 2 mps 746 mmHg 52%
    13:00 +24°C° 0 mm 2 mps 746 mmHg 51%
    14:00 +25°C° 0 mm 2 mps 746 mmHg 49%
    15:00 +24°C° 0 mm 2 mps 746 mmHg 53%
    16:00 +24°C° 0 mm 2 mps 746 mmHg 57%
    17:00 +23°C° 0 mm 2 mps 745 mmHg 60%
    18:00 +20°C° 0 mm 2 mps 746 mmHg 66%
    19:00 +19°C° 0 mm 1 mps 746 mmHg 71%
    20:00 +16°C° 0 mm 1 mps 746 mmHg 77%
    21:00 +15°C° 0 mm 1 mps 746 mmHg 78%
    22:00 +14°C° 0 mm 1 mps 746 mmHg 80%
    23:00 +13°C° 0 mm 1 mps 746 mmHg 81%

    18 August, Saturday

    Time Temperature Precipitation Wind Pressure Humidity
    00:00 +13°C° 0 mm 1 mps 746 mmHg 82%
    01:00 +13°C° 0 mm 1 mps 746 mmHg 83%
    02:00 +12°C° 0 mm 1 mps 746 mmHg 84%
    03:00 +12°C° 0 mm 1 mps 746 mmHg 85%
    04:00 +12°C° 0 mm 1 mps 746 mmHg 86%
    05:00 +12°C° 0 mm 1 mps 747 mmHg 87%
    06:00 +14°C° 0 mm 1 mps 747 mmHg 81%
    07:00 +16°C° 0 mm 2 mps 747 mmHg 74%
    08:00 +18°C° 0 mm 2 mps 747 mmHg 67%
    09:00 +20°C° 0 mm 2 mps 747 mmHg 62%
    10:00 +21°C° 0 mm 2 mps 747 mmHg 57%
    11:00 +24°C° 0 mm 2 mps 747 mmHg 51%
    12:00 +24°C° 0 mm 2 mps 746 mmHg 51%
    13:00 +25°C° 0 mm 2 mps 746 mmHg 50%
    14:00 +25°C° 0 mm 3 mps 746 mmHg 49%
    15:00 +25°C° 0 mm 2 mps 745 mmHg 53%
    16:00 +24°C° 0 mm 2 mps 745 mmHg 58%
    17:00 +24°C° 0 mm 2 mps 745 mmHg 62%
    18:00 +21°C° 0 mm 2 mps 745 mmHg 68%
    19:00 +19°C° 0 mm 2 mps 745 mmHg 75%
    20:00 +17°C° 0 mm 2 mps 745 mmHg 81%
    21:00 +16°C° 0 mm 2 mps 745 mmHg 83%
    22:00 +15°C° 0 mm 2 mps 745 mmHg 85%
    23:00 +15°C° 0 mm 2 mps 745 mmHg 87%

    19 August, Sunday

    Time Temperature Precipitation Wind Pressure Humidity
    00:00 +14°C° 0 mm 2 mps 745 mmHg 89%
    01:00 +14°C° 0 mm 2 mps 745 mmHg 91%
    02:00 +14°C° 0 mm 2 mps 745 mmHg 93%
    03:00 +14°C° 0 mm 2 mps 745 mmHg 93%
    04:00 +13°C° 0 mm 2 mps 745 mmHg 94%
    05:00 +13°C° 0 mm 2 mps 745 mmHg 94%
    06:00 +15°C° 0 mm 2 mps 744 mmHg 87%
    07:00 +17°C° 0 mm 3 mps 744 mmHg 80%
    08:00 +19°C° 0 mm 3 mps 744 mmHg 73%
    09:00 +21°C° 0 mm 3 mps 744 mmHg 67%
    10:00 +22°C° 0 mm 4 mps 744 mmHg 61%
    11:00 +25°C° 0 mm 4 mps 743 mmHg 56%
    12:00 +25°C° 0 mm 4 mps 743 mmHg 56%
    13:00 +26°C° 0 mm 4 mps 742 mmHg 56%
    14:00 +26°C° 0 mm 4 mps 742 mmHg 56%
    15:00 +25°C° 0.4 mm 4 mps 742 mmHg 64%
    16:00 +24°C° 0.4 mm 3 mps 741 mmHg 72%
    17:00 +22°C° 0.4 mm 3 mps 741 mmHg 79%
    18:00 +21°C° 1 mm 3 mps 741 mmHg 84%
    19:00 +20°C° 1 mm 2 mps 741 mmHg 88%
    20:00 +18°C° 1 mm 2 mps 741 mmHg 92%
    21:00 +18°C° 0.2 mm 2 mps 741 mmHg 94%
    22:00 +17°C° 0.2 mm 2 mps 741 mmHg 95%
    23:00 +17°C° 0.2 mm 2 mps 741 mmHg 96%

    20 August, Monday

    Time Temperature Precipitation Wind Pressure Humidity
    00:00 +16°C° 0 mm 2 mps 741 mmHg 97%
    01:00 +15°C° 0 mm 2 mps 741 mmHg 97%
    02:00 +15°C° 0 mm 2 mps 741 mmHg 97%
    03:00 +15°C° 0 mm 2 mps 741 mmHg 97%
    04:00 +14°C° 0 mm 2 mps 741 mmHg 98%
    05:00 +14°C° 0 mm 1 mps 741 mmHg 98%
    06:00 +15°C° 0.1 mm 2 mps 741 mmHg 96%
    07:00 +16°C° 0.1 mm 2 mps 742 mmHg 94%
    08:00 +17°C° 0.1 mm 2 mps 742 mmHg 92%
    09:00 +18°C° 0.1 mm 2 mps 742 mmHg 86%
    10:00 +18°C° 0.1 mm 2 mps 742 mmHg 81%
    11:00 +19°C° 0.1 mm 2 mps 742 mmHg 76%
    12:00 +20°C° 0.1 mm 2 mps 742 mmHg 72%
    13:00 +20°C° 0.1 mm 2 mps 742 mmHg 68%
    14:00 +21°C° 0.1 mm 2 mps 742 mmHg 64%
    15:00 +21°C° 0.1 mm 1 mps 742 mmHg 66%
    16:00 +21°C° 0.1 mm 1 mps 742 mmHg 68%
    17:00 +21°C° 0.1 mm 1 mps 742 mmHg 71%
    18:00 +19°C° 0 mm 1 mps 742 mmHg 74%
    19:00 +16°C° 0 mm 1 mps 742 mmHg 78%
    20:00 +15°C° 0 mm 1 mps 742 mmHg 82%
    21:00 +14°C° 0 mm 1 mps 742 mmHg 82%
    22:00 +14°C° 0 mm 1 mps 742 mmHg 83%
    23:00 +13°C° 0 mm 1 mps 742 mmHg 84%
    Show more